Showing default

SJ-25, 62485

Orbit data source: Space-Track

SJ-25, 62485 is a payload satellite owned by SAST (CN) in GEO that was launched on Mon, 06 Jan 2025 UTC via a CHANG ZHENG 3B launch vehicle from the Xichang Space Center, China (XSC). Payload-class satellites include a variety of spacecraft equipped with specific instruments for various scientific and technological missions. These include communications satellites like Starlink; space stations such as the ISS; scientific satellites like the Hubble; Earth observation satellites from companies like Planet Labs, Umbra, and HawkEye 360; GPS; miniature CubeSats for education and research; and military/defense satellites.

Not visible in the next 10 days
Identifier
62485, 2025-002A
Orbit
GEO
Country
Flag of CNCN / PRC
Related business
Manufacturer
SAST?
Mission
Operational Defense Technology
Bus & Motor
SJ21, Unknown motor
Mass
~5,000 kg wet, ~2,500 kg dry
Launch date (UTC)
2025-01-06 (10 months ago)
Launch vehicle
CHANG ZHENG 3B
Launch site
Xichang Space Center, China (XSC)
Object type
Payload
Rocket body
Debris
Shape & HBR
Box + 2 Pan, 3.4 m
Radar Cross Section
34.063 m², Large (>1 m²)

Expand to show TLE details & history
Last TLE update: 21 hours ago

TLE from 21 hours ago
0 SJ-25
1 62485U 25002A   25302.74202956 -.00000333  00000-0  00000+0 0  9990
2 62485   4.5945  62.5756 0055867 167.9148 203.4025  1.00273960  3054
Epoch: 2025-10-29T17:48Z
TLE epoch observation values (Epoch: 2025-10-29T17:48:31.353Z)
Latitude
0.88034°
Longitude
128.12776°
Altitude
36,002.4 km
Speed
3.059 km/s
True Right ascension
04h 54m 16s
True Declination
0° 52' 46"
Sunlit
Object was in daylight at epoch
Visualization orbit readout
Latitude
Unknown
Longitude
Unknown
Altitude
Unknown
Speed
Unknown
Apparent Right ascension
Unknown
Apparent Declination
Unknown
Sunlit
N/A
Visualization observer readout
Local Sidereal Time
10:13:37
Azimuth
Unknown
Elevation
Unknown
Doppler factor
Unknown
Orbital elements
Apogee altitude
36,022.61 km
Perigee altitude
35,551.481 km
Semi-major axis
42,165.183 km
Eccentricity
0.00559
Inclination
4.5945°
RAAN
62.5756°
Arg. of periapsis
167.9148°
True anomaly
203.14985°
Mean anomaly
203.4025°
Eccentric anomaly
203.27601°
Mean motion
0.25068 °/min
Orbital period
1,436.12 mins
BSTAR
0
Loading maneuver chart data...
Computing Atmospheric mass density...
Loading historical data...
Loading historical data...
Loading historical data...
Loading historical data...
Loading historical data...
Loading historical data...
Loading historical data...
Other satellites on launch #2 in the year 2025 (2025-01-06 UTC)

Documentation

Showing up to 5 results
|